Location: Stilling
(56.0622°N, 9.9882°E)
Time: 00:09:21
(UTC+00:00)

Cosmos 1656 Rocket - Pass Details

Date: 13 July 2020
Orbit: 797 x 845 km, 71.1° (Epoch: 03 August)

Event Time Altitude Azimuth Distance (km) Brightness Sun altitude
Rises 22:45:06 0° 324° (NW) 3,315 8.0 -11.8°
Reaches altitude 10° 22:47:33 10° 320° (NW) 2,381 7.0 -11.9°
Maximum altitude 22:52:49 55° 244° (WSW) 963 3.9 -12.0°
Enters shadow 22:56:56 17° 172° (S) 1,950 4.9 -12.1°
